Nett Lake, MN

3:21 PM CDT on July 23, 2016 (GMT -0500)
Orr Regional

Weather History for KORB - September, 2012

Change the Weather History Date:

Sunday, September 2, 2012

  Actual Average Record
Temperature  
Mean Temperature 68 °F -  
Max Temperature 80 °F 71 °F 91 °F (2004)
Min Temperature 57 °F 49 °F 41 °F (1997)
Cooling Degree Days 4    
Growing Degree Days 18 (Base 50)    
Moisture  
Dew Point 51 °F    
Average Humidity 55    
Maximum Humidity 77    
Minimum Humidity 30    
Precipitation  
Precipitation 0.00 in - - ()
Sea Level Pressure  
Sea Level Pressure 29.90 in    
Wind  
Wind Speed 4 mph (SSE)    
Max Wind Speed 15 mph    
Max Gust Speed 23 mph    
Visibility 10 miles    
Events      
Averages and records for this station are not official NWS values.
T = Trace of Precipitation, MM = Missing Value Source: NWS Daily Summary

Daily Weather History Graph

Daily Weather History Graph

Search for Another Location

Airport or City:

Trip Planner

Search our weather history database for the weather conditions in past years. The results will help you decide how hot, cold, wet, or windy it might be!

Date:

Astronomy

Sep. 02, 2012 Rise Set
Actual Time 6:31 AM CDT 7:49 PM CDT
Civil Twilight 5:59 AM CDT 8:21 PM CDT
Nautical Twilight 5:20 AM CDT 8:59 PM CDT
Astronomical Twilight 4:38 AM CDT 9:41 PM CDT
Moon 8:19 PM CDT (9/2) 8:55 AM CDT (9/2)
Length of Visible Light 14h 21m
Length of Day
13h 17m
Waning Gibbous, 95% of the Moon is Illuminated
Sep 2
Waning Gibbous
Sep 8
Last Quarter
Sep 15
New
Sep 22
First Quarter
Sep 29
Full

Hourly Weather History & Observations

Time (CDT) Temp. Dew Point Humidity Pressure Visibility Wind Dir Wind Speed Gust Speed Precip Events Conditions
12:13 AM 60.8 °F 44.6 °F 55% 30.03 in 10.0 mi Calm Calm - N/A   Clear
12:17 AM 60.8 °F 44.6 °F 55% 30.03 in 10.0 mi Calm Calm - N/A   Clear
12:33 AM 60.8 °F 44.6 °F 55% 30.03 in 10.0 mi Calm Calm - N/A   Clear
12:38 AM 60.8 °F 44.6 °F 55% 30.03 in 10.0 mi SE 4.6 mph - N/A   Clear
12:53 AM 60.8 °F 44.6 °F 55% 30.03 in 10.0 mi Calm Calm - N/A   Clear
12:57 AM 60.8 °F 44.6 °F 55% 30.03 in 10.0 mi SE 4.6 mph - N/A   Clear
1:13 AM 60.8 °F 44.6 °F 55% 30.03 in 10.0 mi SE 3.5 mph - N/A   Clear
1:17 AM 60.8 °F 44.6 °F 55% 30.03 in 10.0 mi SE 4.6 mph - N/A   Clear
1:33 AM 60.8 °F 44.6 °F 55% 30.02 in 10.0 mi SE 5.8 mph - N/A   Clear
1:37 AM 60.8 °F 44.6 °F 55% 30.02 in 10.0 mi SE 4.6 mph - N/A   Clear
1:53 AM 60.8 °F 44.6 °F 55% 30.02 in 10.0 mi SE 4.6 mph - N/A   Clear
1:57 AM 60.8 °F 44.6 °F 55% 30.02 in 10.0 mi SE 5.8 mph - N/A   Clear
2:13 AM 60.8 °F 44.6 °F 55% 30.02 in 10.0 mi SE 4.6 mph - N/A   Clear
2:17 AM 60.8 °F 44.6 °F 55% 30.02 in 10.0 mi SE 3.5 mph - N/A   Clear
2:33 AM 60.8 °F 44.6 °F 55% 30.02 in 10.0 mi SE 4.6 mph - N/A   Clear
2:37 AM 60.8 °F 44.6 °F 55% 30.01 in 10.0 mi SE 3.5 mph - N/A   Clear
2:53 AM 60.8 °F 44.6 °F 55% 30.00 in 10.0 mi SE 4.6 mph - N/A   Clear
2:57 AM 59.0 °F 44.6 °F 59% 30.00 in 10.0 mi SE 4.6 mph - N/A   Clear
3:13 AM 59.0 °F 46.4 °F 63% 30.00 in 10.0 mi SE 6.9 mph - N/A   Clear
3:17 AM 59.0 °F 46.4 °F 63% 30.00 in 10.0 mi SE 5.8 mph - N/A   Clear
3:33 AM 59.0 °F 46.4 °F 63% 29.99 in 10.0 mi SE 4.6 mph - N/A   Clear
3:37 AM 59.0 °F 46.4 °F 63% 29.99 in 10.0 mi SE 4.6 mph - N/A   Clear
3:53 AM 59.0 °F 46.4 °F 63% 29.99 in 10.0 mi SE 8.1 mph - N/A   Clear
3:57 AM 59.0 °F 46.4 °F 63% 29.99 in 10.0 mi SE 8.1 mph - N/A   Clear
4:13 AM 59.0 °F 48.2 °F 67% 29.99 in 10.0 mi SE 5.8 mph - N/A   Clear
4:17 AM 59.0 °F 48.2 °F 67% 29.99 in 10.0 mi SE 8.1 mph - N/A   Clear
4:33 AM 59.0 °F 48.2 °F 67% 29.99 in 10.0 mi SE 8.1 mph - N/A   Clear
4:37 AM 59.0 °F 48.2 °F 67% 29.99 in 10.0 mi SE 5.8 mph - N/A   Clear
4:53 AM 59.0 °F 48.2 °F 67% 29.99 in 10.0 mi SE 5.8 mph - N/A   Clear
4:57 AM 57.2 °F 48.2 °F 72% 29.98 in 10.0 mi SE 5.8 mph - N/A   Clear
5:13 AM 57.2 °F 48.2 °F 72% 29.99 in 10.0 mi SE 4.6 mph - N/A   Clear
5:17 AM 57.2 °F 48.2 °F 72% 29.99 in 10.0 mi SE 3.5 mph - N/A   Clear
5:33 AM 57.2 °F 50.0 °F 77% 29.98 in 10.0 mi SE 6.9 mph - N/A   Clear
5:37 AM 57.2 °F 50.0 °F 77% 29.98 in 10.0 mi SE 4.6 mph - N/A   Clear
5:53 AM 57.2 °F 50.0 °F 77% 29.98 in 10.0 mi SE 5.8 mph - N/A   Clear
5:57 AM 57.2 °F 50.0 °F 77% 29.98 in 10.0 mi SE 5.8 mph - N/A   Clear
6:13 AM 59.0 °F 50.0 °F 72% 29.97 in 10.0 mi SE 8.1 mph - N/A   Clear
6:17 AM 59.0 °F 50.0 °F 72% 29.97 in 10.0 mi SE 4.6 mph - N/A   Clear
6:33 AM 59.0 °F 51.8 °F 77% 29.97 in 10.0 mi SE 5.8 mph - N/A   Clear
6:37 AM 59.0 °F 51.8 °F 77% 29.97 in 10.0 mi SSE 5.8 mph - N/A   Clear
6:53 AM 59.0 °F 51.8 °F 77% 29.98 in 10.0 mi Calm Calm - N/A   Clear
6:57 AM 59.0 °F 51.8 °F 77% 29.98 in 10.0 mi Calm Calm - N/A   Clear
7:13 AM 60.8 °F 51.8 °F 72% 29.98 in 10.0 mi SSE 3.5 mph - N/A   Clear
7:17 AM 60.8 °F 51.8 °F 72% 29.98 in 10.0 mi Calm Calm - N/A   Clear
7:33 AM 60.8 °F 51.8 °F 72% 29.98 in 10.0 mi Calm Calm - N/A   Clear
7:37 AM 60.8 °F 51.8 °F 72% 29.97 in 10.0 mi SSE 3.5 mph - N/A   Clear
7:57 AM 62.6 °F 51.8 °F 68% 29.97 in 10.0 mi Calm Calm - N/A   Clear
8:13 AM 62.6 °F 50.0 °F 63% 29.97 in 10.0 mi SSE 6.9 mph - N/A   Clear
8:17 AM 62.6 °F 50.0 °F 63% 29.96 in 10.0 mi SSE 4.6 mph - N/A   Clear
8:33 AM 64.4 °F 50.0 °F 59% 29.95 in 10.0 mi South 8.1 mph - N/A   Clear
8:37 AM 64.4 °F 50.0 °F 59% 29.95 in 10.0 mi SSE 9.2 mph 16.1 mph N/A   Clear
8:53 AM 64.4 °F 50.0 °F 59% 29.95 in 10.0 mi SSE 10.4 mph - N/A   Clear
8:57 AM 64.4 °F 50.0 °F 59% 29.94 in 10.0 mi SSE 4.6 mph - N/A   Clear
9:13 AM 66.2 °F 50.0 °F 56% 29.94 in 10.0 mi SSE 9.2 mph - N/A   Clear
9:17 AM 66.2 °F 50.0 °F 56% 29.94 in 10.0 mi South 9.2 mph - N/A   Clear
9:33 AM 66.2 °F 48.2 °F 52% 29.94 in 10.0 mi Calm Calm - N/A   Clear
9:37 AM 66.2 °F 48.2 °F 52% 29.94 in 10.0 mi South 4.6 mph - N/A   Clear
9:53 AM 66.2 °F 48.2 °F 52% 29.94 in 10.0 mi SSE 6.9 mph - N/A   Clear
9:57 AM 68.0 °F 50.0 °F 52% 29.94 in 10.0 mi SSE 5.8 mph - N/A   Clear
10:13 AM 71.6 °F 50.0 °F 46% 29.94 in 10.0 mi SSE 5.8 mph - N/A   Clear
10:17 AM 71.6 °F 50.0 °F 46% 29.94 in 10.0 mi SSE 8.1 mph - N/A   Clear
10:33 AM 73.4 °F 51.8 °F 47% 29.93 in 10.0 mi South 10.4 mph 17.3 mph N/A   Clear
10:37 AM 73.4 °F 51.8 °F 47% 29.93 in 10.0 mi South 11.5 mph 17.3 mph N/A   Clear
10:53 AM 73.4 °F 51.8 °F 47% 29.92 in 10.0 mi SSE 12.7 mph 18.4 mph N/A   Clear
10:57 AM 73.4 °F 51.8 °F 47% 29.92 in 10.0 mi SSE 11.5 mph 18.4 mph N/A   Clear
11:13 AM 71.6 °F 51.8 °F 50% 29.91 in 10.0 mi SSE 9.2 mph 18.4 mph N/A   Clear
11:17 AM 71.6 °F 51.8 °F 50% 29.91 in 10.0 mi SSE 10.4 mph 17.3 mph N/A   Clear
11:33 AM 71.6 °F 51.8 °F 50% 29.91 in 10.0 mi SSE 9.2 mph - N/A   Clear
11:38 AM 71.6 °F 51.8 °F 50% 29.90 in 10.0 mi SSE 4.6 mph - N/A   Clear
11:53 AM 73.4 °F 51.8 °F 47% 29.90 in 10.0 mi SSE 12.7 mph 16.1 mph N/A   Clear
11:57 AM 75.2 °F 51.8 °F 44% 29.90 in 10.0 mi SSE 10.4 mph 16.1 mph N/A   Clear
12:13 PM 73.4 °F 50.0 °F 44% 29.89 in 10.0 mi SSE 12.7 mph 21.9 mph N/A   Clear
12:17 PM 73.4 °F 50.0 °F 44% 29.89 in 10.0 mi SSE 4.6 mph 21.9 mph N/A   Clear
12:33 PM 78.8 °F 50.0 °F 36% 29.89 in 10.0 mi South 5.8 mph 19.6 mph N/A   Clear
12:37 PM 78.8 °F 50.0 °F 36% 29.89 in 10.0 mi SSE 9.2 mph 19.6 mph N/A   Clear
12:53 PM 78.8 °F 48.2 °F 34% 29.87 in 10.0 mi SSE 13.8 mph 19.6 mph N/A   Clear
12:57 PM 78.8 °F 48.2 °F 34% 29.87 in 10.0 mi SSE 11.5 mph 19.6 mph N/A   Clear
1:13 PM 77.0 °F 48.2 °F 36% 29.85 in 10.0 mi SSE 13.8 mph 23.0 mph N/A   Clear
1:17 PM 77.0 °F 48.2 °F 36% 29.85 in 10.0 mi SSE 10.4 mph 20.7 mph N/A   Clear
1:33 PM 78.8 °F 46.4 °F 32% 29.85 in 10.0 mi SSE 6.9 mph 23.0 mph N/A   Clear
1:38 PM 78.8 °F 48.2 °F 34% 29.85 in 10.0 mi SSE 8.1 mph 23.0 mph N/A   Clear
1:53 PM 80.6 °F 46.4 °F 30% 29.85 in 10.0 mi SSE 15.0 mph 20.7 mph N/A   Clear
1:57 PM 80.6 °F 46.4 °F 30% 29.84 in 10.0 mi South 10.4 mph 20.7 mph N/A   Clear
2:13 PM 80.6 °F 46.4 °F 30% 29.84 in 10.0 mi South 6.9 mph 17.3 mph N/A   Clear
2:17 PM 80.6 °F 46.4 °F 30% 29.84 in 10.0 mi South 5.8 mph 17.3 mph N/A   Clear
2:33 PM 78.8 °F 48.2 °F 34% 29.83 in 10.0 mi South 10.4 mph 17.3 mph N/A   Clear
2:37 PM 78.8 °F 48.2 °F 34% 29.83 in 10.0 mi SSE 8.1 mph 16.1 mph N/A   Clear
2:53 PM 78.8 °F 50.0 °F 36% 29.83 in 10.0 mi Calm Calm - N/A   Clear
2:57 PM 80.6 °F 48.2 °F 32% 29.83 in 10.0 mi South 3.5 mph 16.1 mph N/A   Clear
3:13 PM 78.8 °F 50.0 °F 36% 29.82 in 10.0 mi South 3.5 mph - N/A   Clear
3:17 PM 78.8 °F 50.0 °F 36% 29.82 in 10.0 mi SSE 9.2 mph 16.1 mph N/A   Clear
3:33 PM 77.0 °F 51.8 °F 41% 29.83 in 10.0 mi SSE 3.5 mph - N/A   Clear
3:37 PM 77.0 °F 51.8 °F 41% 29.82 in 10.0 mi SSE 5.8 mph - N/A   Clear
3:53 PM 78.8 °F 51.8 °F 39% 29.82 in 10.0 mi Calm Calm - N/A   Clear
3:57 PM 78.8 °F 51.8 °F 39% 29.82 in 10.0 mi Calm Calm - N/A   Clear
4:13 PM 78.8 °F 51.8 °F 39% 29.81 in 10.0 mi SSE 12.7 mph 17.3 mph N/A   Clear
4:17 PM 78.8 °F 51.8 °F 39% 29.80 in 10.0 mi SSE 12.7 mph 17.3 mph N/A   Clear
4:33 PM 78.8 °F 51.8 °F 39% 29.80 in 10.0 mi SSE 11.5 mph 17.3 mph N/A   Clear
4:37 PM 78.8 °F 51.8 °F 39% 29.80 in 10.0 mi SSE 9.2 mph 17.3 mph N/A   Clear
4:53 PM 77.0 °F 53.6 °F 44% 29.82 in 10.0 mi SSE 5.8 mph - N/A   Clear
4:57 PM 77.0 °F 53.6 °F 44% 29.81 in 10.0 mi SSE 3.5 mph - N/A   Clear
5:13 PM 75.2 °F 53.6 °F 47% 29.82 in 10.0 mi South 3.5 mph - N/A   Clear
5:17 PM 75.2 °F 53.6 °F 47% 29.82 in 10.0 mi Calm Calm - N/A   Clear
5:33 PM 75.2 °F 55.4 °F 50% 29.81 in 10.0 mi Calm Calm - N/A   Clear
5:37 PM 75.2 °F 55.4 °F 50% 29.81 in 10.0 mi Calm Calm - N/A   Clear
5:53 PM 75.2 °F 55.4 °F 50% 29.80 in 10.0 mi Calm Calm - N/A   Clear
5:57 PM 75.2 °F 55.4 °F 50% 29.81 in 10.0 mi Calm Calm - N/A   Clear
6:13 PM 75.2 °F 55.4 °F 50% 29.81 in 10.0 mi Calm Calm - N/A   Clear
6:17 PM 75.2 °F 55.4 °F 50% 29.81 in 10.0 mi Calm Calm - N/A   Clear
6:33 PM 75.2 °F 55.4 °F 50% 29.81 in 10.0 mi Calm Calm - N/A   Clear
6:37 PM 75.2 °F 57.2 °F 53% 29.80 in 10.0 mi Calm Calm - N/A   Clear
6:53 PM 73.4 °F 57.2 °F 57% 29.80 in 10.0 mi Calm Calm - N/A   Clear
6:57 PM 73.4 °F 57.2 °F 57% 29.80 in 10.0 mi Calm Calm - N/A   Clear
7:13 PM 73.4 °F 57.2 °F 57% 29.80 in 10.0 mi Calm Calm - N/A   Clear
7:17 PM 73.4 °F 57.2 °F 57% 29.80 in 10.0 mi Calm Calm - N/A   Clear
7:33 PM 73.4 °F 57.2 °F 57% 29.80 in 10.0 mi Calm Calm - N/A   Clear
7:37 PM 73.4 °F 57.2 °F 57% 29.80 in 10.0 mi Calm Calm - N/A   Clear
7:53 PM 73.4 °F 57.2 °F 57% 29.80 in 10.0 mi Calm Calm - N/A   Clear
7:57 PM 71.6 °F 57.2 °F 60% 29.81 in 10.0 mi Calm Calm - N/A   Clear
8:15 PM 71.6 °F 57.2 °F 60% 29.81 in 10.0 mi Calm Calm - N/A   Clear
8:18 PM 71.6 °F 57.2 °F 60% 29.81 in 10.0 mi Calm Calm - N/A   Clear
8:33 PM 73.4 °F 57.2 °F 57% 29.81 in 10.0 mi Calm Calm - N/A   Clear
8:37 PM 73.4 °F 57.2 °F 57% 29.81 in 10.0 mi Calm Calm - N/A   Scattered Clouds
8:53 PM 73.4 °F 57.2 °F 57% 29.81 in 10.0 mi Calm Calm - N/A   Scattered Clouds
8:57 PM 73.4 °F 57.2 °F 57% 29.81 in 10.0 mi Calm Calm - N/A   Scattered Clouds
9:13 PM 71.6 °F 57.2 °F 60% 29.81 in 10.0 mi Calm Calm - N/A   Clear
9:17 PM 71.6 °F 57.2 °F 60% 29.81 in 10.0 mi Calm Calm - N/A   Scattered Clouds
9:33 PM 71.6 °F 59.0 °F 64% 29.81 in 10.0 mi Calm Calm - N/A   Clear
9:37 PM 71.6 °F 59.0 °F 64% 29.81 in 10.0 mi Calm Calm - N/A   Clear
9:53 PM 71.6 °F 59.0 °F 64% 29.81 in 10.0 mi Calm Calm - N/A   Clear
9:57 PM 71.6 °F 59.0 °F 64% 29.81 in 10.0 mi Calm Calm - N/A   Clear
10:13 PM 69.8 °F 60.8 °F 73% 29.80 in 10.0 mi Calm Calm - N/A   Clear
10:17 PM 71.6 °F 60.8 °F 69% 29.80 in 10.0 mi Calm Calm - N/A   Clear
10:33 PM 71.6 °F 60.8 °F 69% 29.80 in 10.0 mi Calm Calm - N/A   Scattered Clouds
10:53 PM 71.6 °F 60.8 °F 69% 29.80 in 10.0 mi Calm Calm - N/A   Clear
11:37 PM 69.8 °F 60.8 °F 73% 29.80 in 10.0 mi Calm Calm - N/A   Clear
11:54 PM 69.8 °F 60.8 °F 73% 29.80 in 10.0 mi Calm Calm - N/A   Clear
11:57 PM 69.8 °F 60.8 °F 73% 29.80 in 10.0 mi Calm Calm - N/A   Clear